Location: Sungai Buloh
(3.1000°N, 113.0000°E)
Time: 16:00:46
(UTC+00:00)

Cosmos 2228 Rocket - Pass Details

Date: 12 January 2026
Orbit: 612 x 647 km, 82.5° (Epoch: 10 February)

Event Time Altitude Azimuth Distance (km) Brightness Sun altitude
Rises 12:13:25 0° 194° (SSW) 2,956 7.0 -23.7°
Reaches altitude 10° 12:15:44 10° 199° (SSW) 2,044 6.2 -24.2°
Maximum altitude 12:20:07 49° 274° (W) 830 4.0 -25.2°
Enters shadow 12:22:10 28° 333° (NNW) 1,204 4.5 -25.7°
